Regional Weather Roundup
Issued by NWS

Home | Current Version | Previous Version | Text Only | Print | Product List | Glossary Off
Versions: 1 2 3 4 5 6 7 8 9 10 11 12 13 14 15 16 17 18 19 20 21 22 23 24 25 26 27 28 29 30 31 32 33 34 35 36 37 38 39 40 41 42 43 44 45 46 47 48 49 50

000
ASUS43 KMKX 290811
RWRWI

WISCONSIN REGIONAL WEATHER ROUNDUP
NATIONAL WEATHER SERVICE MILWAUKEE/SULLIVAN WI
300 AM CDT WED MAR 29 2017

NOTE: "FAIR" INDICATES FEW OR NO CLOUDS BELOW 12,000 FEET WITH NO
SIGNIFICANT WEATHER AND/OR OBSTRUCTIONS TO VISIBILITY.

WIZ001-002-006>008-014>016-023>028-290900-
NORTHWEST WISCONSIN

CITY           SKY/WX    TMP DP  RH WIND       PRES   REMARKS
SUPERIOR ARPT  CLEAR     35  31  87 NE8       30.29F WCI  28
ASHLAND        CLEAR     31  29  92 N5        30.28S WCI  26
HAYWARD        CLEAR     31  27  85 NE9       30.23F WCI  23
SIREN          CLEAR     35  27  71 CALM      30.23R
CUMBERLAND     PTCLDY    34  27  75 E3        30.21S
RICE LAKE      PTCLDY    32  28  86 CALM      30.23S
CHETEK         PTCLDY    30  28  92 CALM      30.22S
LADYSMITH      CLEAR     34  28  77 E3        30.24S
EAU CLAIRE     CLOUDY    34  29  82 NE7       30.21S WCI  28
MENOMONIE      CLOUDY    33  30  88 CALM      30.21S
NEW RICHMOND   PTCLDY    34  28  79 NE3       30.20S
OSCEOLA        CLOUDY    33  28  83 CALM      30.23R
$$

WIZ003>005-009-010-017-018-290900-
NORTH CENTRAL WISCONSIN

CITY           SKY/WX    TMP DP  RH WIND       PRES   REMARKS
MANITOWISH WTR CLEAR     31  28  86 E3        30.24S
ARBOR VITAE    CLEAR     34  29  82 SE3       30.24S
WOODRUFF       CLEAR     34  29  82 SE3       30.24S
RHINELANDER    CLEAR     31  27  85 CALM      30.25S
EAGLE RIVER    CLEAR     28  27  96 CALM      30.25S
LAND O LAKES   CLEAR     27  26  97 CALM      30.27S
PHILLIPS       CLEAR     28  25  89 CALM      30.23S
TOMAHAWK       CLEAR     26  24  92 CALM      30.25S
MEDFORD        CLOUDY    34  28  80 SE3       30.22F
MERRILL        CLEAR     28  28  97 CALM      30.25S
$$

WIZ029-030-035-036-043>047-290900-
CENTRAL WISCONSIN

CITY           SKY/WX    TMP DP  RH WIND       PRES   REMARKS
WAUSAU         CLEAR     34  29  82 CALM      30.23S
MOSINEE        CLEAR     36  30  80 NE3       30.25S
MARSHFIELD     CLEAR     37  29  72 NE3       30.22S
STEVENS POINT  CLEAR     28  26  94 CALM      30.25S
WAUPACA        CLEAR     33  31  91 CALM      30.25S
WAUTOMA        CLOUDY    29  27  92 CALM      30.25S
WISC RAPIDS    CLOUDY    33  30  88 CALM      30.25R
CAMP DOUGLAS   CLOUDY    29  28  95 CALM      30.22R
$$

WIZ011>013-019>022-031-037>040-048>050-290900-
NORTHEAST WISCONSIN

CITY           SKY/WX    TMP DP  RH WIND       PRES   REMARKS
ANTIGO         CLEAR     32  29  88 NE7       30.25S WCI  26
SHAWANO        CLEAR     34  32  91 CALM      30.27S
OCONTO         CLEAR     27  27  98 CALM      30.27S
STURGEON BAY   CLEAR     35  29  78 N3        30.24S
GREEN BAY      CLEAR     34  34 100 NE8       30.26R WCI  27
MANITOWOC      CLEAR     33  30  88 N5        30.26S WCI  29
APPLETON       CLEAR     36  30  80 NE6       30.23S WCI  31
CLINTONVILLE   CLEAR     34  30  86 NE6       30.25F WCI  29
OSHKOSH        PTCLDY    37  30  75 N3        30.24S
$$

WIZ032>034-041-042-053>061-290900-
SOUTHWEST WISCONSIN

CITY           SKY/WX    TMP DP  RH WIND       PRES   REMARKS
LA CROSSE      CLEAR     45  34  65 E7        30.21S
SPARTA         CLOUDY    29  28  96 CALM      30.23R
VIROQUA        CLEAR     39  32  77 CALM      30.20S
BOSCOBEL       MOCLDY    35  33  92 CALM      30.22R FOG
PRAIRIE DU CHI PTCLDY    37  35  92 CALM      30.19F
PLATTEVILLE    PTCLDY    38  37  97 E9        30.21S WCI  31
$$

WIZ056-057-062-063-064-067-068-290900-
SOUTH CENTRAL WISCONSIN

CITY           SKY/WX    TMP DP  RH WIND       PRES   REMARKS
REEDSBURG      CLEAR     36  34  92 CALM      30.22R
BARABOO/DELLS  CLEAR     34  32  92 CALM      30.22S
LONE ROCK      PTCLDY    35  32  88 E8        30.22S FOG     WCI  29
MINERAL POINT  PTCLDY    39  37  93 E6        30.21S WCI  35
MADISON        CLEAR     34  32  92 CALM      30.23R
MIDDLETON      CLEAR     38  36  91 SE3       30.23R
WATERTOWN      FOG       33  33 100 CALM      30.23R VSB 1/2
MONROE         CLOUDY    36  36 100 E6        30.21F WCI  31
JANESVILLE     FOG       36  36 100 CALM      30.22S VSB 1/4
$$

WIZ051-052-058>065-066-070>072-290900-
SOUTHEAST WISCONSIN

CITY           SKY/WX    TMP DP  RH WIND       PRES   REMARKS
MILWAUKEE      FOG       34  32  92 CALM      30.23S VSB 1/4
WAUKESHA       FOG       30  30 100 CALM      30.23R VSB 1/4
MILWAUKEE/TIMM FOG       32  30  93 CALM      30.24R VSB 1/4
RACINE         FOG       31  30  96 CALM      30.25S VSB 1/4
KENOSHA        FOG       32  32 100 CALM      30.23S VSB 1/4
FOND DU LAC    PTCLDY    34  30  85 CALM      30.24S
SHEBOYGAN      CLEAR     31  28  89 NE5       30.24S WCI  26
WEST BEND      CLEAR     30  30 100 CALM      30.23R FOG
JUNEAU         CLEAR     32  31  98 CALM      30.24R FOG
$$

LSZ147-162-290900-
LAKE SUPERIOR

STATION/POSITION TIME  TEMP    WIND        PRES    WAVE
                       AIR SEA DIR/SP/G            HT/PER
                 (UTC) (F)     (DEG/KT/KT) (MB)    (FT/S)
DEVILS ISLAND    0800   35      50/ 17/ 20 1027.2R
PORT WING        0740   35      50/  8/ 10 1025.7S
SAXON HARBOR     0740   28     180/  2/  4 1025.1S
$$

LMZ867-665-643>646-290900-
LAKE MICHIGAN

STATION/POSITION TIME  TEMP    WIND        PRES    WAVE
                       AIR SEA DIR/SP/G            HT/PER
                 (UTC) (F)     (DEG/KT/KT) (MB)    (FT/S)
CHAMBERS ISLAND  0740   31     360/  3/  5 1025.1S
NORTHPORT PIER   0740   34     300/  1/  4 1025.4S
SISTER BAY       0605   33        CALM       N/A
KEWAUNEE LAKESHO 0742   37      50/  4/  7 1024.2R
SHEBOYGAN LAKESH 0800   36      20/ 10/ 11 1024.6F
PORT WASHINGTON  0740   35     320/  4/  5 1024.7S
MILWAUKEE LAKESH 0750   33     340/  2/  3   N/A
KENOSHA   LAKESH 0800   32      CALM  /  3 1024.0
$$

TC  - TEMPERATURE IN CELSIUS
VSB - VISIBILITY IN STATUTE MILES
WCI - WIND CHILL INDEX
HX  - HEAT INDEX





USA.gov is the U.S. government's official web portal to all federal, state and local government web resources and services.